Volver al catálogo

SL-8 R/B

ActivoPO
NORAD 25592·ROCKET BODY·🇷🇺 Russia

Lanzado Dec 24, 1998 desde Plesetsk Cosmodrome

Loading…

Próximos Pases (próximas 24 horas)

TLE

ActualizadoSource: Space-Track

Época: Sep 14, 2026, 22:18 UTC

1 25592U 98076B   26257.92931332  .00000091  00000-0  80219-4 0  9991
2 25592  82.9326 125.6403 0026070 153.5594 222.8004 13.74469836390183

Sigue SL-8 R/B en tiempo real con AllMySat

Download on the App Store